This is the latest recevied weather packets stored in our database for station/object K7SPS-10. If no packets are shown the sender has not sent any weather packets the latest 10 day(s).
| Time | Temp. | Humidity | Pressure | Rain* | Wind** | Luminosity | Snow |
|---|---|---|---|---|---|---|---|
| 1778250556 | 13.89° C | 63% | 1017.1 hPa | 0 mm | - | 109 W/m² | - |
| 1778250254 | 13.89° C | 60% | 1017.1 hPa | 0 mm | - | 119 W/m² | - |
| 1778249950 | 13.89° C | 65% | 1017.1 hPa | 0 mm | - | 167 W/m² | - |
| 1778249646 | 12.78° C | 68% | 1017.1 hPa | 0 mm | - | 173 W/m² | - |
| 1778249344 | 12.78° C | 67% | 1016.8 hPa | 0 mm | - | 163 W/m² | - |
| 1778249041 | 12.22° C | 67% | 1016.9 hPa | 0 mm | - | 157 W/m² | - |
| 1778248736 | 11.67° C | 66% | 1016.9 hPa | 0 mm | - | 72 W/m² | - |
| 1778248433 | 11.67° C | 67% | 1017.1 hPa | 0 mm | - | 52 W/m² | - |
| 1778248129 | 11.67° C | 66% | 1016.8 hPa | 0 mm | - | 87 W/m² | - |
| 1778247826 | 11.11° C | 67% | 1016.6 hPa | 0 mm | - | 102 W/m² | - |
| 1778247523 | 11.11° C | 68% | 1016.5 hPa | 0 mm | - | 86 W/m² | - |
| 1778247221 | 11.11° C | 72% | 1016.6 hPa | 0 mm | - | 73 W/m² | - |
| 1778246918 | 10.56° C | 75% | 1016.6 hPa | 0 mm | - | 68 W/m² | - |
| 1778246615 | 10° C | 73% | 1016.5 hPa | 0 mm | - | 58 W/m² | - |
| 1778246312 | 10° C | 74% | 1016.4 hPa | 0 mm | - | 50 W/m² | - |
| 1778246007 | 9.44° C | 75% | 1016.6 hPa | 0 mm | - | 41 W/m² | - |
| 1778245705 | 8.89° C | 77% | 1016.6 hPa | 0 mm | - | 34 W/m² | - |
| 1778245401 | 8.33° C | 81% | 1016.3 hPa | 0 mm | - | 28 W/m² | - |
| 1778245098 | 7.78° C | 85% | 1016.3 hPa | 0 mm | - | 23 W/m² | - |
| 1778244794 | 7.22° C | 86% | 1016.1 hPa | 0 mm | - | 18 W/m² | - |
| 1778244492 | 7.22° C | 88% | 1016.3 hPa | 0 mm | - | 13 W/m² | - |
| 1778244189 | 6.67° C | 89% | 1016.2 hPa | 0 mm | - | 9 W/m² | - |
| 1778243887 | 6.67° C | 89% | 1016.2 hPa | 0 mm | - | 6 W/m² | - |
| 1778243585 | 7.22° C | 89% | 1016 hPa | 0 mm | - | 4 W/m² | - |
| 1778243281 | 7.22° C | 89% | 1016.1 hPa | 0 mm | - | 2 W/m² | - |
* Rain latest hour (hover to see other rain measurements)
** Current wind speed in m/s (hover to see current wind gust speed)